{"data":{"norad_id":33412,"epoch":"2026-05-25T04:01:00.273792Z","epoch_age_seconds":60485,"freshness":"FRESH","line1":"1 33412U 08054A   26145.16736428  .00002717  00000+0  18658-3 0  9992","line2":"2 33412  97.8303   3.3562 0015573 350.0489  10.0427 15.06774629953473","mean_motion":15.06774629,"eccentricity":0.0015573,"inclination_deg":97.8303,"raan_deg":3.3562,"arg_perigee_deg":350.0489,"mean_anomaly_deg":10.0427,"bstar":0.00018658,"rev_number":95347,"period_min":95.568373151842,"perigee_km":535.28055429729,"apogee_km":556.84666952315,"semimajor_km":6924.2006119102,"source":"CELESTRAK","updated_at":"2026-05-25T13:38:12.775378Z"}}